User: anonymous
Location: Caltech
(34.1382°N, 118.1253°W)
Time: 23:44:13
(UTC-07:00)
Language:

Meteor 2-4 Rocket - Orbit

View from above orbital plane
View from above orbital plane
View from above satellite
View from above satellite

Ground track
Ground track

The orbit data is extracted from the following two-line orbital elements,

1 11289U 79021B   14243.69864823  .00000050  00000-0  20384-4 0  7118
2 11289 081.2440 079.6765 0075154 248.7365 182.3920 14.11439120826871
Epoch (UTC): 31 August 2014 16:46:03
Eccentricity: 0.0075154
inclination: 81.2440°
perigee height: 800 km
apogee height: 909 km
right ascension of ascending node: 79.6765°
argument of perigee: 248.7365°
revolutions per day: 14.11439120
mean anomaly at epoch: 182.3920°
orbit number at epoch: 82687

The dashed part of the orbit path shows where the satellite is in the earth's shadow,  

DLR